Cecil Field, FL

9:19 PM EDT on April 23, 2018 (GMT -0400)
Cecil

Weather History for KVQQ - June, 2012

Change the Weather History Date:

Sunday, June 10, 2012

  Actual Average (KNIP) Record (KNIP)
Temperature  
Mean Temperature 78 °F -  
Max Temperature 84 °F 87 °F 102 °F (2007)
Min Temperature 71 °F 71 °F 66 °F (2000)
Cooling Degree Days 12    
Growing Degree Days 28 (Base 50)    
Moisture  
Dew Point 73 °F    
Average Humidity 98    
Maximum Humidity 100    
Minimum Humidity 79    
Precipitation  
Precipitation 0.00 in - - ()
Sea Level Pressure  
Sea Level Pressure 30.06 in    
Wind  
Wind Speed 1 mph (East)    
Max Wind Speed 15 mph    
Max Gust Speed 17 mph    
Visibility 7 miles    
Events Rain , Thunderstorm    
Averages and records for this station are not official NWS values.
T = Trace of Precipitation, MM = Missing Value Source: NWS Daily Summary

Daily Weather History Graph

Daily Weather History Graph

Search for Another Location

Airport or City:

Astronomy

Jun. 10, 2012 Rise Set
Actual Time 6:25 AM EDT 8:29 PM EDT
Civil Twilight 5:57 AM EDT 8:56 PM EDT
Nautical Twilight 5:24 AM EDT 9:29 PM EDT
Astronomical Twilight 4:48 AM EDT 10:05 PM EDT
Moon 12:43 AM EDT (6/10) 12:47 PM EDT (6/10)
Length of Visible Light 14h 58m
Length of Day
14h 03m
Waning Gibbous, 58% of the Moon is Illuminated
Jun 10
Waning Gibbous
Jun 11
Last Quarter
Jun 19
New
Jun 26
First Quarter
Jul 3
Full

Hourly Weather History & Observations

Time (EDT) Temp. Heat Index Dew Point Humidity Pressure Visibility Wind Dir Wind Speed Gust Speed Precip Events Conditions
12:15 AM 73.4 °F - 73.4 °F 100% 30.05 in 7.0 mi Calm Calm - N/A   Overcast
12:55 AM 73.4 °F - 73.4 °F 100% 30.05 in 7.0 mi Calm Calm - N/A   Overcast
1:15 AM 73.4 °F - 73.4 °F 100% 30.04 in 7.0 mi Calm Calm - N/A   Overcast
1:35 AM 73.4 °F - 73.4 °F 100% 30.03 in 5.0 mi Calm Calm - N/A   Partly Cloudy
1:55 AM 73.4 °F - 73.4 °F 100% 30.02 in 7.0 mi Calm Calm - N/A   Clear
2:15 AM 73.4 °F - 73.4 °F 100% 30.01 in 5.0 mi Calm Calm - N/A   Clear
2:35 AM 71.6 °F - 71.6 °F 100% 30.01 in 4.0 mi Calm Calm - N/A   Clear
2:55 AM 71.6 °F - 71.6 °F 100% 30.00 in 4.0 mi Calm Calm - N/A   Clear
3:15 AM 73.4 °F - 73.4 °F 100% 30.01 in 7.0 mi Calm Calm - N/A   Clear
3:35 AM 73.4 °F - 73.4 °F 100% 30.01 in 7.0 mi Calm Calm - N/A   Scattered Clouds
3:55 AM 73.4 °F - 73.4 °F 100% 30.01 in 7.0 mi Calm Calm - N/A   Partly Cloudy
4:15 AM 73.4 °F - 73.4 °F 100% 30.01 in 8.0 mi Calm Calm - N/A   Clear
4:35 AM 73.4 °F - 73.4 °F 100% 30.01 in 8.0 mi Calm Calm - N/A   Clear
4:55 AM 73.4 °F - 73.4 °F 100% 30.02 in 7.0 mi Calm Calm - N/A   Clear
5:15 AM 73.4 °F - 73.4 °F 100% 30.01 in 8.0 mi Calm Calm - N/A   Clear
5:55 AM 71.6 °F - 71.6 °F 100% 30.01 in 7.0 mi Calm Calm - N/A   Clear
6:15 AM 73.4 °F - 73.4 °F 100% 30.03 in 8.0 mi Calm Calm - N/A   Clear
6:50 AM 71.6 °F - 71.6 °F 100% 30.04 in 7.0 mi Calm Calm - N/A   Clear
7:50 AM 73.4 °F - 73.4 °F 100% 30.05 in 7.0 mi Calm Calm - N/A   Scattered Clouds
8:50 AM 73.4 °F - 73.4 °F 100% 30.07 in 7.0 mi Calm Calm - N/A   Scattered Clouds
9:50 AM 75.2 °F - 75.2 °F 100% 30.08 in 7.0 mi Calm Calm - N/A   Mostly Cloudy
10:50 AM 77.0 °F - 75.2 °F 94% 30.08 in 10.0 mi East 6.9 mph - N/A   Scattered Clouds
11:50 AM 82.4 °F 90.9 °F 77.0 °F 84% 30.08 in 10.0 mi East 6.9 mph - N/A   Scattered Clouds
12:50 PM 84.2 °F 94.1 °F 77.0 °F 79% 30.07 in 10.0 mi East 6.9 mph - N/A   Scattered Clouds
1:20 PM 82.4 °F 90.9 °F 77.0 °F 84% 30.06 in 1.0 mi East 9.2 mph - N/A Rain , Thunderstorm Heavy Thunderstorms and Rain
1:50 PM 77.0 °F - 77.0 °F 100% 30.07 in 2.0 mi North 10.4 mph 17.3 mph N/A Rain , Thunderstorm Light Thunderstorms and Rain
2:50 PM 71.6 °F - 71.6 °F 100% 30.07 in 3.0 mi Variable 5.8 mph - N/A Rain , Thunderstorm Light Thunderstorms and Rain
3:50 PM 75.2 °F - 73.4 °F 94% 30.08 in 2.0 mi East 15.0 mph - N/A Rain , Thunderstorm Heavy Thunderstorms and Rain
4:50 PM 73.4 °F - 73.4 °F 100% 30.06 in 8.0 mi East 6.9 mph - N/A   Clear
5:50 PM 75.2 °F - 73.4 °F 94% 30.08 in 10.0 mi SSE 10.4 mph - N/A   Clear
7:50 PM 75.2 °F - 73.4 °F 94% 30.09 in 10.0 mi ESE 4.6 mph - N/A   Mostly Cloudy
8:55 PM 73.4 °F - 73.4 °F 100% 30.10 in 8.0 mi Calm Calm - N/A   Clear
9:15 PM 73.4 °F - 73.4 °F 100% 30.11 in 10.0 mi Calm Calm - N/A   Scattered Clouds
9:35 PM 73.4 °F - 73.4 °F 100% 30.12 in 10.0 mi Calm Calm - N/A   Mostly Cloudy
9:55 PM 73.4 °F - 73.4 °F 100% 30.13 in 10.0 mi Calm Calm - N/A   Mostly Cloudy
10:15 PM 73.4 °F - 73.4 °F 100% 30.14 in 9.0 mi Calm Calm - N/A   Scattered Clouds
10:35 PM 73.4 °F - 73.4 °F 100% 30.14 in 10.0 mi Calm Calm - N/A   Partly Cloudy
10:55 PM 71.6 °F - 71.6 °F 100% 30.15 in 10.0 mi Calm Calm - N/A   Clear
11:15 PM 71.6 °F - 71.6 °F 100% 30.15 in 9.0 mi Calm Calm - N/A   Clear
11:35 PM 71.6 °F - 71.6 °F 100% 30.15 in 10.0 mi Calm Calm - N/A   Clear
11:55 PM 71.6 °F - 71.6 °F 100% 30.14 in 10.0 mi Calm Calm - N/A   Clear